DMSP 5D-2 F13 DEB, 42299

Orbit data source: Space-Track

DMSP 5D-2 F13 DEB, 42299 is space debris in SSO originally from a launch on Fri, 24 Mar 1995 UTC launched from the Air Force Western Test Range (AFWTR). Debris objects in space refer to the collection of defunct objects orbiting the Earth. Examples of debris include non-operational satellites, rocket bodies, and fragments generated from explosions, collisions, or faulty payload assembly.

Loading next visibility...
Identifier
42299, 1995-015HR
Orbit
SSO
Country
Flag of USUS
Related business
Manufacturer
Unknown
Mission
Spacecraft
Bus & Motor
Unknown
Mass
Unknown
Launch date (UTC)
1995-03-24 (31 years ago)
Launch vehicle
Unknown
Launch site
Air Force Western Test Range (AFWTR)
Object type
Payload
Rocket body
Debris
Shape & HBR
Unknown shape, 0.1 m
Radar Cross Section
Small (<0.1 m²)

Expand to show TLE details & history
Last TLE update: 23 hours ago

TLE from 23 hours ago
0 DMSP 5D-2 F13 DEB
1 42299U 95015HR  26072.15512628  .00046287  00000-0  53293-2 0  9994
2 42299  98.6979 148.1323 0013574 215.8295 144.2008 14.85473309546828
Epoch: 2026-03-13T03:43Z
TLE epoch observation values (Epoch: 2026-03-13T03:43:22.910Z)
Latitude
-0.00004°
Longitude
-78.50787°
Altitude
622.806 km
Speed
7.543 km/s
True Right ascension
09h 52m 31s
True Declination
0° 00' 00"
Sunlit
Object was in full shadow at epoch
Visualization orbit readout
Latitude
Unknown
Longitude
Unknown
Altitude
Unknown
Speed
Unknown
Apparent Right ascension
Unknown
Apparent Declination
Unknown
Sunlit
N/A
Visualization observer readout
Local Sidereal Time
06:48:44
Azimuth
Unknown
Elevation
Unknown
Doppler factor
Unknown
Orbital elements
Apogee altitude
618.656 km
Perigee altitude
599.687 km
Semi-major axis
6,987.309 km
Eccentricity
0.00136
Inclination
98.6979°
RAAN
148.1323°
Arg. of periapsis
215.8295°
True anomaly
144.29166°
Mean anomaly
144.2008°
Eccentric anomaly
144.24624°
Mean motion
3.71602 °/min
Orbital period
96.88 mins
BSTAR
0.0053293
Loading maneuver chart data...
Computing Atmospheric mass density...

Documentation

Showing up to 5 results
|